"Pseudo-MPEC" for P12owRG

Created 2026 Jul 22 10:35:07 UT using Find_Orb

Click here for an explanation of pseudo-MPECs

 
 Astrometry: 
     P12owRG*0C2026 07 20.58607523 56 50.859-31 24 59.83   ~7KFK 21.01wXNEOCPF51
     P12owRG 0C2026 07 20.59338323 56 49.408-31 25 28.64   ~7KFK 20.96wXNEOCPF51
     P12owRG 0C2026 07 20.60053723 56 47.984-31 25 56.80   ~7KFK 20.77wXNEOCPF51
     P12owRG 0C2026 07 20.60767623 56 46.554-31 26 24.85   ~7KFK 20.93wXNEOCPF51
     P12owRG 3C2026 07 21.57006423 53 46.676-32 28 24.68   ~7LEo 20.52GVNEOCPT14
     P12owRG 3C2026 07 21.57103723 53 46.478-32 28 28.37   ~7LEo 20.50GVNEOCPT14
     P12owRG 3C2026 07 21.57544623 53 45.585-32 28 45.20   ~7LEo 20.52GVNEOCPT14
     P12owRG 0B2026 07 22.14402923 51 57.016-33 04 00.84   ~7M7K 20.5 GWNEOCPM21
     P12owRG 0B2026 07 22.17438923 51 50.832-33 05 52.77   ~7M7K       WNEOCPM21

Station data:
(F51) Pan-STARRS 1, Haleakala  (N20.707234 W156.255910)  US/Hawaii.
   Observers J. Herman, T. Lowe, P. Minguez, A. Schultz, I. Smith. Measurers
   K. Chambers, T. de Boer, J. Fairlamb, H. Gao, M. Huber, C.-C. Lin, E.
   Magnier, Y. Ramanjooloo, R. Wainscoat, R. Weryk. 1.8-m Ritchey-Chrétien +
   CCD.
(M21) Schiaparelli Southern Observatory, Hakos  (S23.236549 E16.361440)
   Namibia.  Observers A. Aletti, F. Bellini, L. Buzzi, G. Galli. Measurer L.
   Buzzi. 0.36-m f/8.4 reflector + CCD.
(T14) Mauna Kea-UH/Tholen NEO Follow-Up (CFHT)  (N19.825252 W155.468876)
   US/Hawaii.  Observer R. Weryk. 3.6-m Canada-France-Hawaii Telescope.

Orbital elements:  P12owRG
   Perihelion 2026 May 7.401471 +/- 0.241 TT =  9:38:07.1 (JD 2461167.901471)
Epoch 2026 Jul 22.0 TT = JDT 2461243.5   Earth MOID: 0.0135      AutoNEOCP
M  38.771843354 +/- 0.7             (J2000 ecliptic)
n   0.512865051 +/- 0.00824         Peri.  100.030884 +/- 0.19
a   1.545731220 +/- 0.0165          Node   106.691058 +/- 0.14
e   0.54519269 +/- 0.00621          Incl.   18.650279 +/- 0.20
P   1.922/701.926d         H 21.36  G  0.15   U  9.5
q 0.703009855 +/- 0.00252    Q 2.388452584 +/- 0.0351
From 9 observations 2026 July 20-22 (38.1 hr); mean residual 0".03
Residuals in arcseconds: 
260720 F51  .07-  .05-    260720 F51  .01-  .07+    260721 T14  .00   .02-    
260720 F51  .02+  .02-    260721 T14  .01+  .00     260722 M21  .00   .03+    
260720 F51  .06+  .01+    260721 T14  .00   .02+    260722 M21  .01-  .01-    

Ephemerides (geocentric):
Date (UTC) HH   RA             Dec           delta  r     elong  mag " sig PA
---- --------  ------------   ------------  ------ ------ -----  --- --------
2026 07 22 11  23 50 57.292   -33 23 15.46  .30437 1.2295 128.7 20.8 .280 123
2026 07 22 12  23 50 49.304   -33 25 48.07  .30459 1.2299 128.8 20.8 .289 121
2026 07 22 13  23 50 41.310   -33 28 20.42  .30481 1.2302 128.8 20.8 .299 118
2026 07 22 14  23 50 33.312   -33 30 52.52  .30503 1.2306 128.9 20.8 .309 116
2026 07 22 15  23 50 25.308   -33 33 24.36  .30525 1.2310 129.0 20.8 .320 114
2026 07 22 16  23 50 17.298   -33 35 55.95  .30547 1.2313 129.0 20.8 .332 112
2026 07 22 17  23 50 09.284   -33 38 27.29  .30569 1.2317 129.1 20.8 .344 110
2026 07 22 18  23 50 01.264   -33 40 58.38  .30592 1.2321 129.1 20.8 .358 108
2026 07 22 19  23 49 53.239   -33 43 29.21  .30614 1.2324 129.2 20.8 .371 107
2026 07 22 20  23 49 45.209   -33 45 59.78  .30636 1.2328 129.3 20.8 .386 105
2026 07 22 21  23 49 37.173   -33 48 30.11  .30658 1.2332 129.3 20.8 .401 103
2026 07 22 22  23 49 29.133   -33 51 00.18  .30681 1.2335 129.4 20.8 .417 102
2026 07 22 23  23 49 21.087   -33 53 29.99  .30703 1.2339 129.4 20.8 .434 101
2026 07 23 00  23 49 13.036   -33 55 59.56  .30726 1.2343 129.5 20.8 .451  99
2026 07 23 01  23 49 04.979   -33 58 28.87  .30748 1.2346 129.5 20.8 .468  98
2026 07 23 02  23 48 56.918   -34 00 57.92  .30770 1.2350 129.6 20.8 .487  97
2026 07 23 03  23 48 48.851   -34 03 26.72  .30793 1.2354 129.7 20.8 .506  96
2026 07 23 04  23 48 40.780   -34 05 55.27  .30815 1.2357 129.7 20.8 .525  95
2026 07 23 05  23 48 32.703   -34 08 23.57  .30838 1.2361 129.8 20.8 .545  94
2026 07 23 06  23 48 24.621   -34 10 51.61  .30860 1.2365 129.8 20.8 .565  93
2026 07 23 07  23 48 16.533   -34 13 19.39  .30883 1.2368 129.9 20.8 .586  92
2026 07 23 08  23 48 08.441   -34 15 46.93  .30906 1.2372 129.9 20.8 .608  91
2026 07 23 09  23 48 00.344   -34 18 14.21  .30928 1.2376 130.0 20.8 .630  91
2026 07 23 10  23 47 52.241   -34 20 41.24  .30951 1.2379 130.1 20.8 .653  90
2026 07 23 11  23 47 44.134   -34 23 08.01  .30974 1.2383 130.1 20.8 .676  89
2026 07 23 12  23 47 36.021   -34 25 34.53  .30996 1.2387 130.2 20.8 .699  89
2026 07 23 13  23 47 27.904   -34 28 00.80  .31019 1.2390 130.2 20.8 .723  88
2026 07 23 14  23 47 19.781   -34 30 26.81  .31042 1.2394 130.3 20.8 .748  87
2026 07 23 15  23 47 11.653   -34 32 52.57  .31065 1.2398 130.3 20.8 .773  87
2026 07 23 16  23 47 03.521   -34 35 18.08  .31088 1.2401 130.4 20.8 .798  86
2026 07 23 17  23 46 55.383   -34 37 43.34  .31110 1.2405 130.4 20.8 .824  86
2026 07 23 18  23 46 47.240   -34 40 08.34  .31133 1.2408 130.5 20.8 .850  86
2026 07 23 19  23 46 39.092   -34 42 33.09  .31156 1.2412 130.6 20.8 .877  85
2026 07 23 20  23 46 30.940   -34 44 57.58  .31179 1.2416 130.6 20.8 .904  85
2026 07 23 21  23 46 22.782   -34 47 21.82  .31202 1.2419 130.7 20.8 .932  84
2026 07 23 22  23 46 14.620   -34 49 45.81  .31225 1.2423 130.7 20.8 .960  84
2026 07 23 23  23 46 06.452   -34 52 09.55  .31248 1.2427 130.8 20.8 .988  84
2026 07 24 00  23 45 58.280   -34 54 33.03  .31271 1.2430 130.8 20.8 1.02  83
2026 07 24 01  23 45 50.102   -34 56 56.26  .31295 1.2434 130.9 20.8 1.05  83
2026 07 24 02  23 45 41.920   -34 59 19.24  .31318 1.2438 130.9 20.8 1.08  83
2026 07 24 03  23 45 33.733   -35 01 41.96  .31341 1.2441 131.0 20.8 1.11  82
2026 07 24 04  23 45 25.541   -35 04 04.44  .31364 1.2445 131.1 20.8 1.14  82
2026 07 24 05  23 45 17.344   -35 06 26.65  .31387 1.2449 131.1 20.8 1.17  82
2026 07 24 06  23 45 09.143   -35 08 48.62  .31411 1.2452 131.2 20.8 1.20  82
2026 07 24 07  23 45 00.936   -35 11 10.33  .31434 1.2456 131.2 20.8 1.23  81
2026 07 24 08  23 44 52.725   -35 13 31.79  .31457 1.2460 131.3 20.8 1.26  81
2026 07 24 09  23 44 44.509   -35 15 53.00  .31480 1.2463 131.3 20.8 1.30  81
2026 07 24 10  23 44 36.288   -35 18 13.96  .31504 1.2467 131.4 20.8 1.33  81